This is the latest recevied weather packets stored in our database for station/object KB9MLJ. If no packets are shown the sender has not sent any weather packets the latest 10 day(s).
| Time | Temp. | Humidity | Pressure | Rain* | Wind** | Luminosity | Snow |
|---|---|---|---|---|---|---|---|
| 1777400542 | 13.89° C | 76% | 1015 hPa | 0 mm | - | 334 W/m² | - |
| 1777400239 | 14.44° C | 76% | 1015 hPa | 0 mm | - | 489 W/m² | - |
| 1777399935 | 14.44° C | 76% | 1015 hPa | 0 mm | - | 489 W/m² | - |
| 1777399632 | 14.44° C | 76% | 1015 hPa | 0 mm | - | 489 W/m² | - |
| 1777399329 | 14.44° C | 75% | 1015.4 hPa | 0 mm | - | 947 W/m² | - |
| 1777399027 | 13.89° C | 76% | 1015 hPa | 0 mm | - | 414 W/m² | - |
| 1777398724 | 13.89° C | 75% | 1015 hPa | 0 mm | - | 743 W/m² | - |
| 1777398420 | 13.89° C | 75% | 1015 hPa | 0 mm | - | 788 W/m² | - |
| 1777398117 | 14.44° C | 74% | 1014.7 hPa | 0 mm | - | 840 W/m² | - |
| 1777397814 | 13.89° C | 75% | 1015 hPa | 0 mm | - | 411 W/m² | - |
| 1777397509 | 13.89° C | 76% | 1014.7 hPa | 0 mm | - | 824 W/m² | - |
| 1777397206 | 13.89° C | 75% | 1014.7 hPa | 0 mm | - | 426 W/m² | - |
| 1777396903 | 14.44° C | 75% | 1015 hPa | 0 mm | - | 288 W/m² | - |
| 1777396598 | 13.89° C | 75% | 1015 hPa | 0 mm | - | 833 W/m² | - |
| 1777396296 | 13.89° C | 75% | 1014.7 hPa | 0 mm | - | 794 W/m² | - |
| 1777395993 | 13.89° C | 75% | 1015 hPa | 0 mm | - | 303 W/m² | - |
| 1777395692 | 13.33° C | 75% | 1014.7 hPa | 0 mm | - | 822 W/m² | - |
| 1777395389 | 13.89° C | 75% | 1014.7 hPa | 0 mm | - | 334 W/m² | - |
| 1777395087 | 13.89° C | 76% | 1014.7 hPa | 0 mm | - | 576 W/m² | - |
| 1777394784 | 13.89° C | 76% | 1015 hPa | 0 mm | - | 854 W/m² | - |
| 1777394480 | 13.33° C | 76% | 1014.7 hPa | 0 mm | - | 363 W/m² | - |
| 1777394176 | 13.33° C | 78% | 1014.4 hPa | 0 mm | - | 774 W/m² | - |
| 1777393872 | 12.78° C | 77% | 1014.4 hPa | 0 mm | - | 838 W/m² | - |
| 1777393571 | 13.33° C | 78% | 1014 hPa | 0 mm | - | 635 W/m² | - |
| 1777393266 | 13.33° C | 77% | 1014 hPa | 0 mm | - | 532 W/m² | - |
* Rain latest hour (hover to see other rain measurements)
** Current wind speed in m/s (hover to see current wind gust speed)